Location: Caltech
(34.1382°N, 118.1253°W)
Time: 23:12:29
(UTC-07:00)

Daily predictions for brighter satellites

Satellite Brightness Start Highest point End
(mag) Time Altitude Azimuth Time Altitude Azimuth Time Altitude Azimuth
ERS-1 Rocket 4.0 20:23:32 10° SE 20:27:51 29° ENE 20:32:10 10° N
Coronas F rocket 2.6 20:28:39 10° SE 20:30:46 21° E 20:32:53 10° NE
Abrixas rocket 3.2 20:30:27 10° NW 20:33:40 38° NNE 20:36:52 10° ESE
CZ-4 DEB 3.5 20:31:18 10° SE 20:34:13 34° ENE 20:37:08 10° N
BREEZE-M DEB (TANK) 4.2 20:35:08 10° W 20:37:22 18° NW 20:39:00 10° NNE
Cosmos 389 Rocket 3.6 20:35:31 10° NNW 20:38:51 44° W 20:42:10 10° SSW
Cosmos 909 Rocket 4.2 20:38:57 10° SSW 20:45:14 77° ESE 20:52:37 10° NNE
SL-8 R/B 4.2 20:42:03 10° WSW 20:46:51 65° NW 20:51:38 10° NE
Cosmos 724 4.5 20:41:47 10° NNW 20:47:58 76° ENE 20:54:05 10° SSE
deb Chang Zheng 4 4.2 20:45:14 10° NNE 20:49:20 36° E 20:53:25 10° SSE
YAOGAN 11 4.2 20:47:46 10° SSE 20:52:11 64° ENE 20:56:41 10° N
Cosmos 1733 Rocket 3.2 20:50:44 10° S 20:55:02 54° E 20:59:20 10° NNE
Cosmos 2184 Rocket 4.0 20:50:17 10° S 20:56:22 67° E 21:02:29 10° NNE
USA 234 4.1 20:51:54 10° ENE 20:56:58 24° ESE 21:02:00 10° S
USA 186 2.8 20:54:46 10° S 20:57:35 42° W 21:00:37 10° NNW
COSMOS 2406 3.8 20:52:49 10° N 20:58:17 43° ENE 21:02:27 16° SE
Cosmos 2056 Rocket 3.4 20:56:56 10° S 21:02:06 76° ESE 21:07:14 10° NNE
Cosmos 1371 Rocket 4.3 20:58:53 10° SSW 21:04:12 74° WNW 21:09:30 10° NNE
H-2A R/B 0.1 21:02:16 10° W 21:04:21 36° S 21:04:31 35° S
ATLAS 5 CENTAUR R/B 2.9 21:00:01 10° NNW 21:05:54 49° NE 21:10:26 19° ESE
Cosmos 1356 Rocket 3.6 21:02:39 10° SSW 21:06:50 78° W 21:11:07 10° N
Meteor 1-10 Rocket 4.4 21:04:42 10° N 21:10:27 58° E 21:14:56 16° SSE
Cosmos 2278 Rocket 3.0 21:08:50 14° SSE 21:12:41 29° ESE 21:17:30 10° NE
Cosmos 1825 3.4 21:12:50 22° E 21:13:17 22° E 21:16:17 10° NE
Cosmos 2084 4.1 21:14:04 25° SE 21:14:32 26° ESE 21:17:46 10° ENE
SL-27 R/B 3.4 21:11:59 10° N 21:15:20 34° ENE 21:16:29 27° ESE
Cosmos 1844 3.9 21:10:07 10° S 21:15:36 50° ESE 21:21:11 10° NNE
EO 1 Delta rocket 4.3 21:09:52 10° NNE 21:15:55 57° E 21:20:28 12° S
COS B Rocket 4.0 21:15:58 10° NNE 21:19:46 35° E 21:20:49 29° ESE
H-2A R/B 2.1 21:18:21 22° SSE 21:21:03 64° ENE 21:25:17 10° N
CZ-4 SHROUD 4.5 21:22:53 24° ENE 21:22:56 24° ENE 21:25:31 10° NNE
Cosmos 1844 Rocket 2.6 21:17:39 10° SSW 21:23:18 82° ESE 21:28:58 10° NNE
Nimbus 7 Rocket 4.3 21:19:16 10° NNE 21:25:12 78° ESE 21:31:11 10° S
CENTAUR R/B 3.1 21:17:24 10° NNW 21:25:27 89° NE 21:31:33 21° SSE
YAOGAN 6 3.6 21:26:29 26° E 21:26:47 27° ENE 21:29:47 10° NNE
Cosmos 1408 3.3 21:27:08 32° E 21:27:19 32° E 21:30:38 10° NNE
Cosmos 1939 Rocket 3.0 21:32:30 23° S 21:34:47 66° W 21:38:40 10° NNW
Cosmos 2082 Rocket 4.4 21:34:45 10° NE 21:35:10 10° NE 21:35:35 10° NE
Cosmos 1782 2.8 21:33:51 10° N 21:37:53 85° W 21:39:43 32° S
PSLV R/B 3.6 21:39:34 45° NE 21:39:34 45° NE 21:42:07 10° N
MetOp-A 4.2 21:36:48 31° SE 21:39:18 60° ENE 21:44:34 10° N
Okean 2 Rocket 3.7 21:40:10 34° E 21:40:24 34° E 21:44:24 10° NNE
Envisat 3.1 21:37:18 22° S 21:40:40 77° WSW 21:45:46 10° NNW
Meteor 1-27 Rocket 3.7 21:35:24 10° N 21:40:55 61° E 21:43:18 33° SSE
ERBS 2.2 21:41:33 10° NW 21:45:01 78° NE 21:45:18 70° ESE
Sich 1 Rocket 3.9 21:41:23 12° SSW 21:45:34 68° W 21:50:09 10° N
H-2A R/B 3.6 21:46:19 20° E 21:47:13 21° ENE 21:51:06 10° NNE
UNK 4.4 21:42:39 10° NNE 21:48:52 76° ESE 21:53:32 17° S
Nadezhda 3 Rocket 4.0 21:43:30 10° N 21:49:51 72° E 21:53:01 32° SSE
Cosmos 1420 Rocket 4.3 21:49:10 40° ESE 21:49:53 42° ESE 21:54:48 10° NNE
SPOT 5 3.0 21:47:20 31° SSE 21:49:54 89° WSW 21:55:16 10° NNW
Cosmos 1238 Rocket 3.0 21:47:18 10° N 21:49:56 42° NE 21:49:56 42° NE
Cosmos 1606 2.6 21:47:05 10° N 21:51:01 79° E 21:51:38 61° SSE
Atlas Centaur 2 1.6 21:48:59 10° WSW 21:51:55 43° SSW 21:51:55 43° SSW
Cosmos 1674 Rocket 4.2 21:49:28 10° NNW 21:53:50 54° W 21:56:08 26° SSW
Terra 3.4 22:00:11 20° ENE 22:00:11 20° ENE 22:03:32 10° NNE
GPS 2-05 Rocket1 3.7 21:56:37 10° WSW 21:59:13 42° SW 21:59:13 42° SW
SPOT 1/Viking Rocket 3.6 22:00:49 48° SE 22:02:04 65° ENE 22:07:14 10° N
Cosmos 1782 Rocket 3.4 22:01:34 57° S 22:02:27 82° E 22:06:56 10° N
Cosmos 2341 Rocket 4.0 21:59:14 22° S 22:03:33 88° W 22:09:52 10° N
Cosmos 407 Rocket 3.5 21:58:31 10° NNW 22:03:48 79° WSW 22:05:30 44° S
PSLV R/B 3.7 22:01:15 10° WNW 22:04:22 62° NNW 22:04:22 62° NNW
Cosmos 1452 Rocket 3.8 22:00:06 10° SSW 22:05:18 65° WNW 22:10:33 10° N
Abrixas rocket 4.4 22:08:00 10° W 22:09:54 19° WSW 22:09:54 19° WSW
BREEZE-M DEB (TANK) 3.7 22:05:44 10° NW 22:15:11 42° NNE 22:16:25 33° ENE
Cosmos 1140 Rocket 3.8 22:12:50 10° N 22:17:49 48° ENE 22:17:57 48° ENE
Timation 2 Rocket 4.4 22:13:31 10° N 22:19:10 41° ENE 22:20:00 39° E
Okean 3 3.4 22:15:10 10° N 22:19:27 78° W 22:19:27 78° W
Cosmos 1975 Rocket 3.0 22:17:57 10° N 22:22:05 81° NNW 22:22:05 81° NNW
Meteor 2-13 Rocket 4.4 22:19:48 38° S 22:22:20 85° W 22:28:31 10° N
SL-8 Rocket 3.9 22:26:14 51° S 22:27:58 85° E 22:34:16 10° N
CZ-4B R/B 4.1 22:27:09 10° N 22:31:56 51° WNW 22:33:52 32° SW
SL-08 RB Rocket 3.8 22:35:15 75° WNW 22:35:15 75° WNW 22:39:38 10° NNW
DMSP B5D2-2 4.3 22:33:11 10° NNE 22:37:33 55° ENE 22:37:33 55° ENE
Meteor 1-14 Rocket 4.1 22:37:59 71° SSW 22:38:39 89° W 22:44:18 10° N
USA 234 3.3 22:33:44 10° NE 22:40:16 75° NW 22:46:45 10° SW
Cosmos 1850 Rocket 4.2 22:37:29 10° N 22:42:23 61° NE 22:42:23 61° NE
ARGOS 3.4 22:42:53 54° SW 22:43:32 57° W 22:48:48 10° NNW
Cosmos 2151 Rocket 4.4 22:46:51 48° N 22:46:51 48° N 22:50:08 10° N
ATLAS 5 CENTAUR R/B 3.9 22:45:21 10° WNW 22:50:26 26° WSW 22:52:00 24° SW
Meteor 2-8 Rocket 4.5 22:47:00 10° N 22:52:56 64° ENE 22:52:56 64° ENE
Cosmos 2278 Rocket 3.8 22:51:33 10° SW 22:56:37 33° WNW 23:01:41 10° N
Cosmos 864 Rocket 4.4 22:59:42 75° SW 23:00:07 79° W 23:06:16 10° N
Cosmos 1741 Rocket 4.3 22:56:06 10° NNW 23:00:32 65° NNW 23:00:32 65° NNW
Cosmos 1833 Rocket 3.4 22:59:41 10° N 23:04:19 43° NE 23:04:19 43° NE
Cosmos 2366 rocket 4.2 23:05:57 59° WSW 23:06:45 65° W 23:13:03 10° N
Cosmos 2082 Rocket 2.6 23:14:25 10° NNW 23:19:06 60° N 23:19:06 60° N
H-2A R/B 3.1 23:26:57 42° WNW 23:26:57 42° WNW 23:31:23 10° NNW
USA 229 DEB 3.9 23:20:00 10° NNW 23:27:04 64° ENE 23:27:08 64° ENE
USA 229 3.9 23:20:05 10° NNW 23:27:10 63° ENE 23:27:14 63° ENE
Terra 3.5 23:39:04 28° WNW 23:39:04 28° WNW 23:41:53 10° NNW
Lacrosse 5 4.5 23:53:43 12° NE 23:53:43 12° NE 23:54:03 10° NE
